Year,Month,Day,Hour,Minute,Value (Times are PST for temperature in C)
2018,08,07,00,00,22.20
2018,08,07,00,01,22.10
2018,08,07,00,02,22.10
2018,08,07,00,03,22.10
2018,08,07,00,04,22.10
2018,08,07,00,05,22.10
2018,08,07,00,06,22.10
2018,08,07,00,07,22.10
2018,08,07,00,08,22.00
2018,08,07,00,09,22.00
2018,08,07,00,10,22.00
2018,08,07,00,11,22.00
2018,08,07,00,12,22.00
2018,08,07,00,13,21.90
2018,08,07,00,14,21.90
2018,08,07,00,15,21.90
2018,08,07,00,16,21.90
2018,08,07,00,17,21.90
2018,08,07,00,18,21.90
2018,08,07,00,19,21.90
2018,08,07,00,20,21.80
2018,08,07,00,21,21.80
2018,08,07,00,22,21.80
2018,08,07,00,23,21.80
2018,08,07,00,24,21.80
2018,08,07,00,25,21.80
2018,08,07,00,26,21.70
2018,08,07,00,27,21.70
2018,08,07,00,28,21.60
2018,08,07,00,29,21.60
2018,08,07,00,30,21.60
2018,08,07,00,31,21.60
2018,08,07,00,32,21.60
2018,08,07,00,33,21.60
2018,08,07,00,34,21.60
2018,08,07,00,35,21.50
2018,08,07,00,36,21.50
2018,08,07,00,37,21.50
2018,08,07,00,38,21.50
2018,08,07,00,39,21.50
2018,08,07,00,40,21.50
2018,08,07,00,41,21.50
2018,08,07,00,42,21.40
2018,08,07,00,43,21.40
2018,08,07,00,44,21.40
2018,08,07,00,45,21.40
2018,08,07,00,46,21.40
2018,08,07,00,47,21.40
2018,08,07,00,48,21.40
2018,08,07,00,49,21.40
2018,08,07,00,50,21.30
2018,08,07,00,51,21.30
2018,08,07,00,52,21.30
2018,08,07,00,53,21.30
2018,08,07,00,54,21.30
2018,08,07,00,55,21.30
2018,08,07,00,56,21.30
2018,08,07,00,57,21.30
2018,08,07,00,58,21.30
2018,08,07,00,59,21.30
2018,08,07,01,00,21.30
2018,08,07,01,01,21.30
2018,08,07,01,02,21.30
2018,08,07,01,03,21.30
2018,08,07,01,04,21.30
2018,08,07,01,05,21.30
2018,08,07,01,06,21.30
2018,08,07,01,07,21.20
2018,08,07,01,08,21.20
2018,08,07,01,09,21.20
2018,08,07,01,10,21.20
2018,08,07,01,11,21.20
2018,08,07,01,12,21.20
2018,08,07,01,13,21.20
2018,08,07,01,14,21.20
2018,08,07,01,15,21.20
2018,08,07,01,16,21.10
2018,08,07,01,17,21.10
2018,08,07,01,18,21.10
2018,08,07,01,19,21.10
2018,08,07,01,20,21.10
2018,08,07,01,21,21.10
2018,08,07,01,22,21.00
2018,08,07,01,23,21.00
2018,08,07,01,24,21.00
2018,08,07,01,25,20.90
2018,08,07,01,26,20.90
2018,08,07,01,27,20.90
2018,08,07,01,28,20.90
2018,08,07,01,29,20.90
2018,08,07,01,30,20.90
2018,08,07,01,31,20.90
2018,08,07,01,32,20.90
2018,08,07,01,33,20.80
2018,08,07,01,34,20.80
2018,08,07,01,35,20.80
2018,08,07,01,36,20.80
2018,08,07,01,37,20.80
2018,08,07,01,38,20.80
2018,08,07,01,39,20.80
2018,08,07,01,40,20.80
2018,08,07,01,41,20.70
2018,08,07,01,42,20.70
2018,08,07,01,43,20.70
2018,08,07,01,44,20.70
2018,08,07,01,45,20.70
2018,08,07,01,46,20.70
2018,08,07,01,47,20.70
2018,08,07,01,48,20.70
2018,08,07,01,49,20.70
2018,08,07,01,50,20.70
2018,08,07,01,51,20.70
2018,08,07,01,52,20.70
2018,08,07,01,53,20.70
2018,08,07,01,54,20.70
2018,08,07,01,55,20.60
2018,08,07,01,56,20.60
2018,08,07,01,57,20.60
2018,08,07,01,58,20.60
2018,08,07,01,59,20.60
2018,08,07,02,00,20.60
2018,08,07,02,01,20.60
2018,08,07,02,02,20.60
2018,08,07,02,03,20.60
2018,08,07,02,04,20.60
2018,08,07,02,05,20.60
2018,08,07,02,06,20.60
2018,08,07,02,07,20.60
2018,08,07,02,08,20.60
2018,08,07,02,09,20.60
2018,08,07,02,10,20.60
2018,08,07,02,11,20.60
2018,08,07,02,12,20.60
2018,08,07,02,13,20.60
2018,08,07,02,14,20.60
2018,08,07,02,15,20.60
2018,08,07,02,16,20.60
2018,08,07,02,17,20.60
2018,08,07,02,18,20.60
2018,08,07,02,19,20.60
2018,08,07,02,20,20.60
2018,08,07,02,21,20.50
2018,08,07,02,22,20.50
2018,08,07,02,23,20.50
2018,08,07,02,24,20.50
2018,08,07,02,25,20.40
2018,08,07,02,26,20.40
2018,08,07,02,27,20.40
2018,08,07,02,28,20.40
2018,08,07,02,29,20.40
2018,08,07,02,30,20.40
2018,08,07,02,31,20.30
2018,08,07,02,32,20.30
2018,08,07,02,33,20.30
2018,08,07,02,34,20.30
2018,08,07,02,35,20.30
2018,08,07,02,36,20.20
2018,08,07,02,37,20.20
2018,08,07,02,38,20.20
2018,08,07,02,39,20.20
2018,08,07,02,40,20.20
2018,08,07,02,41,20.10
2018,08,07,02,42,20.10
2018,08,07,02,43,20.10
2018,08,07,02,44,20.10
2018,08,07,02,45,20.10
2018,08,07,02,46,20.00
2018,08,07,02,47,20.00
2018,08,07,02,48,20.00
2018,08,07,02,49,19.90
2018,08,07,02,50,19.90
2018,08,07,02,51,19.90
2018,08,07,02,52,19.90
2018,08,07,02,53,19.90
2018,08,07,02,54,19.90
2018,08,07,02,55,19.90
2018,08,07,02,56,19.80
2018,08,07,02,57,19.80
2018,08,07,02,58,19.80
2018,08,07,02,59,19.80
2018,08,07,03,00,19.70
2018,08,07,03,01,19.70
2018,08,07,03,02,19.70
2018,08,07,03,03,19.70
2018,08,07,03,04,19.60
2018,08,07,03,05,19.60
2018,08,07,03,06,19.60
2018,08,07,03,07,19.60
2018,08,07,03,08,19.50
2018,08,07,03,09,19.50
2018,08,07,03,10,19.40
2018,08,07,03,11,19.40
2018,08,07,03,12,19.30
2018,08,07,03,13,19.30
2018,08,07,03,14,19.20
2018,08,07,03,15,19.20
2018,08,07,03,16,19.10
2018,08,07,03,17,19.10
2018,08,07,03,18,19.10
2018,08,07,03,19,19.00
2018,08,07,03,20,19.00
2018,08,07,03,21,19.00
2018,08,07,03,22,18.90
2018,08,07,03,23,18.90
2018,08,07,03,24,18.80
2018,08,07,03,25,18.80
2018,08,07,03,26,18.80
2018,08,07,03,27,18.70
2018,08,07,03,28,18.60
2018,08,07,03,29,18.60
2018,08,07,03,30,18.60
2018,08,07,03,31,18.60
2018,08,07,03,32,18.60
2018,08,07,03,33,18.50
2018,08,07,03,34,18.50
2018,08,07,03,35,18.50
2018,08,07,03,36,18.40
2018,08,07,03,37,18.40
2018,08,07,03,38,18.40
2018,08,07,03,39,18.40
2018,08,07,03,40,18.30
2018,08,07,03,41,18.30
2018,08,07,03,42,18.30
2018,08,07,03,43,18.20
2018,08,07,03,44,18.20
2018,08,07,03,45,18.20
2018,08,07,03,46,18.10
2018,08,07,03,47,18.10
2018,08,07,03,48,18.10
2018,08,07,03,49,18.10
2018,08,07,03,50,18.10
2018,08,07,03,51,18.20
2018,08,07,03,52,18.20
2018,08,07,03,53,18.30
2018,08,07,03,54,18.30
2018,08,07,03,55,18.40
2018,08,07,03,56,18.50
2018,08,07,03,57,18.60
2018,08,07,03,58,18.60
2018,08,07,03,59,18.60
2018,08,07,04,00,18.70
2018,08,07,04,01,18.70
2018,08,07,04,02,18.70
2018,08,07,04,03,18.80
2018,08,07,04,04,18.80
2018,08,07,04,05,18.80
2018,08,07,04,06,18.80
2018,08,07,04,07,18.80
2018,08,07,04,08,18.80
2018,08,07,04,09,18.90
2018,08,07,04,10,18.90
2018,08,07,04,11,18.90
2018,08,07,04,12,18.90
2018,08,07,04,13,18.90
2018,08,07,04,14,18.90
2018,08,07,04,15,18.90
2018,08,07,04,16,18.90
2018,08,07,04,17,18.90
2018,08,07,04,18,18.90
2018,08,07,04,19,18.90
2018,08,07,04,20,18.90
2018,08,07,04,21,18.90
2018,08,07,04,22,18.90
2018,08,07,04,23,18.90
2018,08,07,04,24,18.80
2018,08,07,04,25,18.80
2018,08,07,04,26,18.80
2018,08,07,04,27,18.80
2018,08,07,04,28,18.80
2018,08,07,04,29,18.80
2018,08,07,04,30,18.80
2018,08,07,04,31,18.80
2018,08,07,04,32,18.80
2018,08,07,04,33,18.70
2018,08,07,04,34,18.70
2018,08,07,04,35,18.70
2018,08,07,04,36,18.70
2018,08,07,04,37,18.70
2018,08,07,04,38,18.70
2018,08,07,04,39,18.70
2018,08,07,04,40,18.70
2018,08,07,04,41,18.70
2018,08,07,04,42,18.70
2018,08,07,04,43,18.60
2018,08,07,04,44,18.60
2018,08,07,04,45,18.60
2018,08,07,04,46,18.60
2018,08,07,04,47,18.60
2018,08,07,04,48,18.60
2018,08,07,04,49,18.60
2018,08,07,04,50,18.60
2018,08,07,04,51,18.50
2018,08,07,04,52,18.50
2018,08,07,04,53,18.50
2018,08,07,04,54,18.50
2018,08,07,04,55,18.50
2018,08,07,04,56,18.50
2018,08,07,04,57,18.50
2018,08,07,04,58,18.50
2018,08,07,04,59,18.50
2018,08,07,05,00,18.50
2018,08,07,05,01,18.50
2018,08,07,05,02,18.50
2018,08,07,05,03,18.50
2018,08,07,05,04,18.50
2018,08,07,05,05,18.50
2018,08,07,05,06,18.50
2018,08,07,05,07,18.40
2018,08,07,05,08,18.50
2018,08,07,05,09,18.40
2018,08,07,05,10,18.40
2018,08,07,05,11,18.40
2018,08,07,05,12,18.40
2018,08,07,05,13,18.40
2018,08,07,05,14,18.40
2018,08,07,05,15,18.40
2018,08,07,05,16,18.40
2018,08,07,05,17,18.40
2018,08,07,05,18,18.40
2018,08,07,05,19,18.40
2018,08,07,05,20,18.40
2018,08,07,05,21,18.50
2018,08,07,05,22,18.50
2018,08,07,05,23,18.50
2018,08,07,05,24,18.50
2018,08,07,05,25,18.50
2018,08,07,05,26,18.50
2018,08,07,05,27,18.50
2018,08,07,05,28,18.50
2018,08,07,05,29,18.50
2018,08,07,05,30,18.50
2018,08,07,05,31,18.50
2018,08,07,05,32,18.50
2018,08,07,05,33,18.40
2018,08,07,05,34,18.40
2018,08,07,05,35,18.40
2018,08,07,05,36,18.40
2018,08,07,05,37,18.40
2018,08,07,05,38,18.40
2018,08,07,05,39,18.40
2018,08,07,05,40,18.40
2018,08,07,05,41,18.40
2018,08,07,05,42,18.40
2018,08,07,05,43,18.40
2018,08,07,05,44,18.40
2018,08,07,05,45,18.30
2018,08,07,05,46,18.30
2018,08,07,05,47,18.30
2018,08,07,05,48,18.30
2018,08,07,05,49,18.30
2018,08,07,05,50,18.30
2018,08,07,05,51,18.30
2018,08,07,05,52,18.30
2018,08,07,05,53,18.30
2018,08,07,05,54,18.30
2018,08,07,05,55,18.30
2018,08,07,05,56,18.30
2018,08,07,05,57,18.30
2018,08,07,05,58,18.30
2018,08,07,05,59,18.30
2018,08,07,06,00,18.30
2018,08,07,06,01,18.30
2018,08,07,06,02,18.30
2018,08,07,06,03,18.30
2018,08,07,06,04,18.30
2018,08,07,06,05,18.30
2018,08,07,06,06,18.30
2018,08,07,06,07,18.30
2018,08,07,06,08,18.30
2018,08,07,06,09,18.30
2018,08,07,06,10,18.30
2018,08,07,06,11,18.30
2018,08,07,06,12,18.30
2018,08,07,06,13,18.30
2018,08,07,06,14,18.30
2018,08,07,06,15,18.20
2018,08,07,06,16,18.20
2018,08,07,06,17,18.20
2018,08,07,06,18,18.20
2018,08,07,06,19,18.20
2018,08,07,06,20,18.20
2018,08,07,06,21,18.20
2018,08,07,06,22,18.20
2018,08,07,06,23,18.20
2018,08,07,06,24,18.20
2018,08,07,06,25,18.20
2018,08,07,06,26,18.20
2018,08,07,06,27,18.20
2018,08,07,06,28,18.20
2018,08,07,06,29,18.20
2018,08,07,06,30,18.20
2018,08,07,06,31,18.20
2018,08,07,06,32,18.20
2018,08,07,06,33,18.20
2018,08,07,06,34,18.20
2018,08,07,06,35,18.20
2018,08,07,06,36,18.20
2018,08,07,06,37,18.20
2018,08,07,06,38,18.20
2018,08,07,06,39,18.20
2018,08,07,06,40,18.30
2018,08,07,06,41,18.30
2018,08,07,06,42,18.30
2018,08,07,06,43,18.30
2018,08,07,06,44,18.30
2018,08,07,06,45,18.30
2018,08,07,06,46,18.30
2018,08,07,06,47,18.30
2018,08,07,06,48,18.40
2018,08,07,06,49,18.40
2018,08,07,06,50,18.40
2018,08,07,06,51,18.40
2018,08,07,06,52,18.40
2018,08,07,06,53,18.50
2018,08,07,06,54,18.50
2018,08,07,06,55,18.50
2018,08,07,06,56,18.50
2018,08,07,06,57,18.60
2018,08,07,06,58,18.60
2018,08,07,06,59,18.60
2018,08,07,07,00,18.60
2018,08,07,07,01,18.60
2018,08,07,07,02,18.70
2018,08,07,07,03,18.70
2018,08,07,07,04,18.70
2018,08,07,07,05,18.70
2018,08,07,07,06,18.80
2018,08,07,07,07,18.80
2018,08,07,07,08,18.80
2018,08,07,07,09,18.80
2018,08,07,07,10,18.80
2018,08,07,07,11,18.90
2018,08,07,07,12,18.90
2018,08,07,07,13,18.90
2018,08,07,07,14,18.90
2018,08,07,07,15,19.00
2018,08,07,07,16,19.00
2018,08,07,07,17,19.10
2018,08,07,07,18,19.10
2018,08,07,07,19,19.10
2018,08,07,07,20,19.20
2018,08,07,07,21,19.20
2018,08,07,07,22,19.20
2018,08,07,07,23,19.30
2018,08,07,07,24,19.30
2018,08,07,07,25,19.30
2018,08,07,07,26,19.30
2018,08,07,07,27,19.30
2018,08,07,07,28,19.30
2018,08,07,07,29,19.30
2018,08,07,07,30,19.40
2018,08,07,07,31,19.40
2018,08,07,07,32,19.40
2018,08,07,07,33,19.40
2018,08,07,07,34,19.40
2018,08,07,07,35,19.40
2018,08,07,07,36,19.40
2018,08,07,07,37,19.50
2018,08,07,07,38,19.50
2018,08,07,07,39,19.50
2018,08,07,07,40,19.50
2018,08,07,07,41,19.60
2018,08,07,07,42,19.60
2018,08,07,07,43,19.60
2018,08,07,07,44,19.70
2018,08,07,07,45,19.70
2018,08,07,07,46,19.70
2018,08,07,07,47,19.80
2018,08,07,07,48,19.80
2018,08,07,07,49,19.80
2018,08,07,07,50,19.80
2018,08,07,07,51,19.90
2018,08,07,07,52,19.90
2018,08,07,07,53,19.90
2018,08,07,07,54,20.00
2018,08,07,07,55,20.00
2018,08,07,07,56,20.00
2018,08,07,07,57,20.10
2018,08,07,07,58,20.10
2018,08,07,07,59,20.10
2018,08,07,08,00,20.10
2018,08,07,08,01,20.10
2018,08,07,08,02,20.10
2018,08,07,08,03,20.10
2018,08,07,08,04,20.10
2018,08,07,08,05,20.20
2018,08,07,08,06,20.20
2018,08,07,08,07,20.20
2018,08,07,08,08,20.20
2018,08,07,08,09,20.30
2018,08,07,08,10,20.40
2018,08,07,08,11,20.40
2018,08,07,08,12,20.50
2018,08,07,08,13,20.50
2018,08,07,08,14,20.60
2018,08,07,08,15,20.60
2018,08,07,08,16,20.60
2018,08,07,08,17,20.70
2018,08,07,08,18,20.70
2018,08,07,08,19,20.70
2018,08,07,08,20,20.70
2018,08,07,08,21,20.70
2018,08,07,08,22,20.70
2018,08,07,08,23,20.80
2018,08,07,08,24,20.80
2018,08,07,08,25,20.80
2018,08,07,08,26,20.90
2018,08,07,08,27,20.90
2018,08,07,08,28,21.00
2018,08,07,08,29,21.10
2018,08,07,08,30,21.10
2018,08,07,08,31,21.20
2018,08,07,08,32,21.30
2018,08,07,08,33,21.30
2018,08,07,08,34,21.40
2018,08,07,08,35,21.40
2018,08,07,08,36,21.50
2018,08,07,08,37,21.60
2018,08,07,08,38,21.70
2018,08,07,08,39,21.70
2018,08,07,08,40,21.70
2018,08,07,08,41,21.80
2018,08,07,08,42,21.80
2018,08,07,08,43,21.80
2018,08,07,08,44,21.80
2018,08,07,08,45,21.90
2018,08,07,08,46,21.90
2018,08,07,08,47,21.90
2018,08,07,08,48,22.00
2018,08,07,08,49,22.00
2018,08,07,08,50,22.00
2018,08,07,08,51,22.10
2018,08,07,08,52,22.10
2018,08,07,08,53,22.10
2018,08,07,08,54,22.20
2018,08,07,08,55,22.20
2018,08,07,08,56,22.20
2018,08,07,08,57,22.20
2018,08,07,08,58,22.20
2018,08,07,08,59,22.20
2018,08,07,09,00,22.30
2018,08,07,09,01,22.30
2018,08,07,09,02,22.40
2018,08,07,09,03,22.40
2018,08,07,09,04,22.50
2018,08,07,09,05,22.60
2018,08,07,09,06,22.60
2018,08,07,09,07,22.70
2018,08,07,09,08,22.70
2018,08,07,09,09,22.70
2018,08,07,09,10,22.70
2018,08,07,09,11,22.70
2018,08,07,09,12,22.70
2018,08,07,09,13,22.70
2018,08,07,09,14,22.70
2018,08,07,09,15,22.80
2018,08,07,09,16,22.80
2018,08,07,09,17,22.80
2018,08,07,09,18,22.80
2018,08,07,09,19,22.90
2018,08,07,09,20,22.90
2018,08,07,09,21,23.00
2018,08,07,09,22,23.00
2018,08,07,09,23,23.10
2018,08,07,09,24,23.10
2018,08,07,09,25,23.20
2018,08,07,09,26,23.20
2018,08,07,09,27,23.30
2018,08,07,09,28,23.30
2018,08,07,09,29,23.40
2018,08,07,09,30,23.40
2018,08,07,09,31,23.50
2018,08,07,09,32,23.50
2018,08,07,09,33,23.60
2018,08,07,09,34,23.60
2018,08,07,09,35,23.60
2018,08,07,09,36,23.60
2018,08,07,09,37,23.70
2018,08,07,09,38,23.70
2018,08,07,09,39,23.70
2018,08,07,09,40,23.70
2018,08,07,09,41,23.70
2018,08,07,09,42,23.60
2018,08,07,09,43,23.60
2018,08,07,09,44,23.60
2018,08,07,09,45,23.50
2018,08,07,09,46,23.50
2018,08,07,09,47,23.50
2018,08,07,09,48,23.40
2018,08,07,09,49,23.40
2018,08,07,09,50,23.40
2018,08,07,09,51,23.40
2018,08,07,09,52,23.40
2018,08,07,09,53,23.40
2018,08,07,09,54,23.40
2018,08,07,09,55,23.40
2018,08,07,09,56,23.40
2018,08,07,09,57,23.40
2018,08,07,09,58,23.40
2018,08,07,09,59,23.40
2018,08,07,10,00,23.40
2018,08,07,10,01,23.50
2018,08,07,10,02,23.50
2018,08,07,10,03,23.50
2018,08,07,10,04,23.60
2018,08,07,10,05,23.60
2018,08,07,10,06,23.70
2018,08,07,10,07,23.70
2018,08,07,10,08,23.70
2018,08,07,10,09,23.80
2018,08,07,10,10,23.80
2018,08,07,10,11,23.80
2018,08,07,10,12,23.80
2018,08,07,10,13,23.80
2018,08,07,10,14,23.90
2018,08,07,10,15,23.90
2018,08,07,10,16,23.90
2018,08,07,10,17,24.00
2018,08,07,10,18,24.00
2018,08,07,10,19,24.10
2018,08,07,10,20,24.10
2018,08,07,10,21,24.20
2018,08,07,10,22,24.20
2018,08,07,10,23,24.20
2018,08,07,10,24,24.30
2018,08,07,10,25,24.30
2018,08,07,10,26,24.40
2018,08,07,10,27,24.40
2018,08,07,10,28,24.50
2018,08,07,10,29,24.50
2018,08,07,10,30,24.60
2018,08,07,10,31,24.60
2018,08,07,10,32,24.60
2018,08,07,10,33,24.60
2018,08,07,10,34,24.60
2018,08,07,10,35,24.60
2018,08,07,10,36,24.60
2018,08,07,10,37,24.50
2018,08,07,10,38,24.50
2018,08,07,10,39,24.50
2018,08,07,10,40,24.50
2018,08,07,10,41,24.50
2018,08,07,10,42,24.60
2018,08,07,10,43,24.60
2018,08,07,10,44,24.70
2018,08,07,10,45,24.70
2018,08,07,10,46,24.70
2018,08,07,10,47,24.70
2018,08,07,10,48,24.80
2018,08,07,10,49,24.90
2018,08,07,10,50,24.90
2018,08,07,10,51,25.00
2018,08,07,10,52,25.10
2018,08,07,10,53,25.20
2018,08,07,10,54,25.30
2018,08,07,10,55,25.40
2018,08,07,10,56,25.50
2018,08,07,10,57,25.50
2018,08,07,10,58,25.50
2018,08,07,10,59,25.60
2018,08,07,11,00,25.60
2018,08,07,11,01,25.60
2018,08,07,11,02,25.70
2018,08,07,11,03,25.70
2018,08,07,11,04,25.70
2018,08,07,11,05,25.80
2018,08,07,11,06,25.80
2018,08,07,11,07,25.90
2018,08,07,11,08,25.90
2018,08,07,11,09,26.00
2018,08,07,11,10,26.00
2018,08,07,11,11,26.10
2018,08,07,11,12,26.10
2018,08,07,11,13,26.20
2018,08,07,11,14,26.20
2018,08,07,11,15,26.30
2018,08,07,11,16,26.30
2018,08,07,11,17,26.40
2018,08,07,11,18,26.50
2018,08,07,11,19,26.50
2018,08,07,11,20,26.50
2018,08,07,11,21,26.60
2018,08,07,11,22,26.60
2018,08,07,11,23,26.50
2018,08,07,11,24,26.50
2018,08,07,11,25,26.60
2018,08,07,11,26,26.60
2018,08,07,11,27,26.50
2018,08,07,11,28,26.50
2018,08,07,11,29,26.40
2018,08,07,11,30,26.40
2018,08,07,11,31,26.40
2018,08,07,11,32,26.40
2018,08,07,11,33,26.40
2018,08,07,11,34,26.40
2018,08,07,11,35,26.40
2018,08,07,11,36,26.40
2018,08,07,11,37,26.40
2018,08,07,11,38,26.40
2018,08,07,11,39,26.30
2018,08,07,11,40,26.30
2018,08,07,11,41,26.30
2018,08,07,11,42,26.30
2018,08,07,11,43,26.30
2018,08,07,11,44,26.30
2018,08,07,11,45,26.30
2018,08,07,11,46,26.40
2018,08,07,11,47,26.40
2018,08,07,11,48,26.40
2018,08,07,11,49,26.40
2018,08,07,11,50,26.40
2018,08,07,11,51,26.40
2018,08,07,11,52,26.40
2018,08,07,11,53,26.40
2018,08,07,11,54,26.40
2018,08,07,11,55,26.40
2018,08,07,11,56,26.40
2018,08,07,11,57,26.40
2018,08,07,11,58,26.50
2018,08,07,11,59,26.50
2018,08,07,12,00,26.60
2018,08,07,12,01,26.60
2018,08,07,12,02,26.60
2018,08,07,12,03,26.60
2018,08,07,12,04,26.60
2018,08,07,12,05,26.70
2018,08,07,12,06,26.80
2018,08,07,12,07,26.90
2018,08,07,12,08,26.90
2018,08,07,12,09,26.90
2018,08,07,12,10,27.00
2018,08,07,12,11,27.00
2018,08,07,12,12,27.10
2018,08,07,12,13,27.20
2018,08,07,12,14,27.20
2018,08,07,12,15,27.20
2018,08,07,12,16,27.20
2018,08,07,12,17,27.20
2018,08,07,12,18,27.30
2018,08,07,12,19,27.30
2018,08,07,12,20,27.30
2018,08,07,12,21,27.30
2018,08,07,12,22,27.30
2018,08,07,12,23,27.40
2018,08,07,12,24,27.50
2018,08,07,12,25,27.60
2018,08,07,12,26,27.70
2018,08,07,12,27,27.70
2018,08,07,12,28,27.80
2018,08,07,12,29,27.80
2018,08,07,12,30,27.80
2018,08,07,12,31,27.80
2018,08,07,12,32,27.80
2018,08,07,12,33,27.80
2018,08,07,12,34,27.70
2018,08,07,12,35,27.70
2018,08,07,12,36,27.70
2018,08,07,12,37,27.70
2018,08,07,12,38,27.70
2018,08,07,12,39,27.80
2018,08,07,12,40,27.80
2018,08,07,12,41,27.90
2018,08,07,12,42,28.00
2018,08,07,12,43,28.00
2018,08,07,12,44,28.10
2018,08,07,12,45,28.10
2018,08,07,12,46,28.10
2018,08,07,12,47,28.10
2018,08,07,12,48,28.10
2018,08,07,12,49,28.10
2018,08,07,12,50,28.10
2018,08,07,12,51,28.20
2018,08,07,12,52,28.20
2018,08,07,12,53,28.30
2018,08,07,12,54,28.30
2018,08,07,12,55,28.40
2018,08,07,12,56,28.40
2018,08,07,12,57,28.50
2018,08,07,12,58,28.60
2018,08,07,12,59,28.70
2018,08,07,13,00,28.70
2018,08,07,13,01,28.80
2018,08,07,13,02,28.80
2018,08,07,13,03,28.90
2018,08,07,13,04,29.00
2018,08,07,13,05,29.00
2018,08,07,13,06,29.10
2018,08,07,13,07,29.10
2018,08,07,13,08,29.20
2018,08,07,13,09,29.20
2018,08,07,13,10,29.30
2018,08,07,13,11,29.20
2018,08,07,13,12,29.20
2018,08,07,13,13,29.20
2018,08,07,13,14,29.20
2018,08,07,13,15,29.20
2018,08,07,13,16,29.20
2018,08,07,13,17,29.10
2018,08,07,13,18,29.00
2018,08,07,13,19,29.00
2018,08,07,13,20,28.90
2018,08,07,13,21,28.90
2018,08,07,13,22,28.80
2018,08,07,13,23,28.80
2018,08,07,13,24,28.80
2018,08,07,13,25,28.80
2018,08,07,13,26,28.90
2018,08,07,13,27,28.90
2018,08,07,13,28,28.90
2018,08,07,13,29,28.90
2018,08,07,13,30,28.90
2018,08,07,13,31,28.90
2018,08,07,13,32,28.90
2018,08,07,13,33,29.00
2018,08,07,13,34,29.10
2018,08,07,13,35,29.10
2018,08,07,13,36,29.20
2018,08,07,13,37,29.30
2018,08,07,13,38,29.30
2018,08,07,13,39,29.30
2018,08,07,13,40,29.40
2018,08,07,13,41,29.40
2018,08,07,13,42,29.50
2018,08,07,13,43,29.50
2018,08,07,13,44,29.60
2018,08,07,13,45,29.60
2018,08,07,13,46,29.60
2018,08,07,13,47,29.60
2018,08,07,13,48,29.60
2018,08,07,13,49,29.60
2018,08,07,13,50,29.60
2018,08,07,13,51,29.60
2018,08,07,13,52,29.60
2018,08,07,13,53,29.50
2018,08,07,13,54,29.40
2018,08,07,13,55,29.30
2018,08,07,13,56,29.30
2018,08,07,13,57,29.20
2018,08,07,13,58,29.20
2018,08,07,13,59,29.30
2018,08,07,14,00,29.40
2018,08,07,14,01,29.50
2018,08,07,14,02,29.60
2018,08,07,14,03,29.70
2018,08,07,14,04,29.80
2018,08,07,14,05,29.90
2018,08,07,14,06,29.90
2018,08,07,14,07,30.00
2018,08,07,14,08,30.10
2018,08,07,14,09,30.10
2018,08,07,14,10,30.10
2018,08,07,14,11,30.00
2018,08,07,14,12,30.00
2018,08,07,14,13,30.00
2018,08,07,14,14,30.00
2018,08,07,14,15,30.00
2018,08,07,14,16,30.00
2018,08,07,14,17,30.00
2018,08,07,14,18,30.10
2018,08,07,14,19,30.10
2018,08,07,14,20,30.10
2018,08,07,14,21,30.20
2018,08,07,14,22,30.30
2018,08,07,14,23,30.40
2018,08,07,14,24,30.50
2018,08,07,14,25,30.50
2018,08,07,14,26,30.60
2018,08,07,14,27,30.60
2018,08,07,14,28,30.60
2018,08,07,14,29,30.60
2018,08,07,14,30,30.70
2018,08,07,14,31,30.70
2018,08,07,14,32,30.80
2018,08,07,14,33,30.80
2018,08,07,14,34,30.80
2018,08,07,14,35,30.90
2018,08,07,14,36,30.90
2018,08,07,14,37,30.90
2018,08,07,14,38,30.90
2018,08,07,14,39,31.00
2018,08,07,14,40,31.00
2018,08,07,14,41,31.00
2018,08,07,14,42,30.90
2018,08,07,14,43,30.90
2018,08,07,14,44,30.90
2018,08,07,14,45,30.90
2018,08,07,14,46,30.90
2018,08,07,14,47,30.80
2018,08,07,14,48,30.80
2018,08,07,14,49,30.80
2018,08,07,14,50,30.90
2018,08,07,14,51,30.90
2018,08,07,14,52,31.00
2018,08,07,14,53,31.10
2018,08,07,14,54,31.10
2018,08,07,14,55,31.10
2018,08,07,14,56,31.10
2018,08,07,14,57,31.10
2018,08,07,14,58,31.10
2018,08,07,14,59,31.10
2018,08,07,15,00,31.20
2018,08,07,15,01,31.20
2018,08,07,15,02,31.30
2018,08,07,15,03,31.40
2018,08,07,15,04,31.40
2018,08,07,15,05,31.50
2018,08,07,15,06,31.60
2018,08,07,15,07,31.60
2018,08,07,15,08,31.60
2018,08,07,15,09,31.60
2018,08,07,15,10,31.70
2018,08,07,15,11,31.70
2018,08,07,15,12,31.60
2018,08,07,15,13,31.60
2018,08,07,15,14,31.60
2018,08,07,15,15,31.60
2018,08,07,15,16,31.50
2018,08,07,15,17,31.50
2018,08,07,15,18,31.50
2018,08,07,15,19,31.60
2018,08,07,15,20,31.60
2018,08,07,15,21,31.60
2018,08,07,15,22,31.70
2018,08,07,15,23,31.70
2018,08,07,15,24,31.80
2018,08,07,15,25,31.80
2018,08,07,15,26,31.80
2018,08,07,15,27,31.80
2018,08,07,15,28,31.90
2018,08,07,15,29,31.90
2018,08,07,15,30,31.90
2018,08,07,15,31,31.90
2018,08,07,15,32,31.90
2018,08,07,15,33,31.90
2018,08,07,15,34,31.90
2018,08,07,15,35,31.90
2018,08,07,15,36,32.00
2018,08,07,15,37,32.00
2018,08,07,15,38,32.10
2018,08,07,15,39,32.20
2018,08,07,15,40,32.30
2018,08,07,15,41,32.30
2018,08,07,15,42,32.20
2018,08,07,15,43,32.20
2018,08,07,15,44,32.10
2018,08,07,15,45,32.10
2018,08,07,15,46,32.10
2018,08,07,15,47,32.10
2018,08,07,15,48,32.10
2018,08,07,15,49,32.10
2018,08,07,15,50,32.10
2018,08,07,15,51,32.10
2018,08,07,15,52,32.20
2018,08,07,15,53,32.20
2018,08,07,15,54,32.20
2018,08,07,15,55,32.30
2018,08,07,15,56,32.20
2018,08,07,15,57,32.20
2018,08,07,15,58,32.20
2018,08,07,15,59,32.20
2018,08,07,16,00,32.20
2018,08,07,16,01,32.20
2018,08,07,16,02,32.20
2018,08,07,16,03,32.20
2018,08,07,16,04,32.20
2018,08,07,16,05,32.20
2018,08,07,16,06,32.20
2018,08,07,16,07,32.20
2018,08,07,16,08,32.20
2018,08,07,16,09,32.20
2018,08,07,16,10,32.20
2018,08,07,16,11,32.30
2018,08,07,16,12,32.40
2018,08,07,16,13,32.40
2018,08,07,16,14,32.40
2018,08,07,16,15,32.50
2018,08,07,16,16,32.50
2018,08,07,16,17,32.60
2018,08,07,16,18,32.60
2018,08,07,16,19,32.60
2018,08,07,16,20,32.70
2018,08,07,16,21,32.70
2018,08,07,16,22,32.70
2018,08,07,16,23,32.70
2018,08,07,16,24,32.70
2018,08,07,16,25,32.70
2018,08,07,16,26,32.70
2018,08,07,16,27,32.80
2018,08,07,16,28,32.80
2018,08,07,16,29,32.90
2018,08,07,16,30,33.00
2018,08,07,16,31,33.10
2018,08,07,16,32,33.10
2018,08,07,16,33,33.10
2018,08,07,16,34,33.10
2018,08,07,16,35,33.10
2018,08,07,16,36,33.00
2018,08,07,16,37,33.00
2018,08,07,16,38,32.90
2018,08,07,16,39,32.80
2018,08,07,16,40,32.80
2018,08,07,16,41,32.80
2018,08,07,16,42,32.70
2018,08,07,16,43,32.60
2018,08,07,16,44,32.50
2018,08,07,16,45,32.50
2018,08,07,16,46,32.50
2018,08,07,16,47,32.50
2018,08,07,16,48,32.50
2018,08,07,16,49,32.60
2018,08,07,16,50,32.60
2018,08,07,16,51,32.60
2018,08,07,16,52,32.60
2018,08,07,16,53,32.60
2018,08,07,16,54,32.60
2018,08,07,16,55,32.60
2018,08,07,16,56,32.60
2018,08,07,16,57,32.50
2018,08,07,16,58,32.50
2018,08,07,16,59,32.40
2018,08,07,17,00,32.40
2018,08,07,17,01,32.40
2018,08,07,17,02,32.30
2018,08,07,17,03,32.30
2018,08,07,17,04,32.30
2018,08,07,17,05,32.30
2018,08,07,17,06,32.30
2018,08,07,17,07,32.30
2018,08,07,17,08,32.30
2018,08,07,17,09,32.30
2018,08,07,17,10,32.30
2018,08,07,17,11,32.20
2018,08,07,17,12,32.20
2018,08,07,17,13,32.20
2018,08,07,17,14,32.20
2018,08,07,17,15,32.20
2018,08,07,17,16,32.20
2018,08,07,17,17,32.20
2018,08,07,17,18,32.30
2018,08,07,17,19,32.30